M I D A S
Marine Information and Data Acquisition System
Tripno 1291 of the Zeeleeuw from 2007-06-22 05:56:11 to 2007-06-22 13:24:53
Back to CruiseResearch ActivitiesStationsMapUnderway DataData graphs

EquipmentUnitsComments
TimeDGPSUTC
LatitudeDGPSDM.mWGS84
LongitudeDGPSDM.mWGS84
SpeedMeteo Stationm/sRelative wind speed
DirectionMeteo StationdegRelative wind direction
TemperatureMeteo Stationdeg CelciusAir temperature
PressureMeteo StationPaAtmospheric pressure
HumidityMeteo Station%Relative humidity
Missing or incorrect values are displayed as -999
Metereological data collected by the RV Zeeleeuw from 2007-06-22 05:57:33 to 2007-06-22 13:35:43
                                                                                    Next 1000 lines
Time Latitude Longitude Speed Direction Temperature Pressure Humidity
2007-06-22 05:57:43 51°13.599 2°56.092 -999 -999 -999 -999 -999
2007-06-22 05:57:48 51°13.599 2°56.089 -999 -999 -999 -999 -999
2007-06-22 05:57:53 51°13.599 2°56.086 -999 -999 -999 -999 -999
2007-06-22 05:57:58 51°13.6 2°56.083 -999 -999 -999 -999 -999
2007-06-22 05:58:03 51°13.601 2°56.078 -999 -999 -999 -999 -999
2007-06-22 05:58:08 51°13.602 2°56.073 -999 -999 -999 -999 -999
2007-06-22 05:58:13 51°13.604 2°56.068 -999 -999 -999 -999 -999
2007-06-22 05:58:18 51°13.605 2°56.062 -999 -999 -999 -999 -999
2007-06-22 05:58:23 51°13.607 2°56.055 -999 -999 -999 -999 -999
2007-06-22 05:58:28 51°13.609 2°56.048 -999 -999 -999 -999 -999
2007-06-22 05:58:33 51°13.611 2°56.041 -999 -999 -999 -999 -999
2007-06-22 05:58:38 51°13.613 2°56.033 -999 -999 -999 -999 -999
2007-06-22 05:58:43 51°13.615 2°56.025 -999 -999 -999 -999 -999
2007-06-22 05:58:48 51°13.618 2°56.016 -999 -999 -999 -999 -999
2007-06-22 05:58:53 51°13.62 2°56.008 -999 -999 -999 -999 -999
2007-06-22 05:58:58 51°13.623 2°55.999 -999 -999 -999 -999 -999
2007-06-22 05:59:03 51°13.626 2°55.99 -999 -999 -999 -999 -999
2007-06-22 05:59:08 51°13.629 2°55.98 -999 -999 -999 -999 -999
2007-06-22 05:59:13 51°13.632 2°55.971 -999 -999 -999 -999 -999
2007-06-22 05:59:18 51°13.636 2°55.962 -999 -999 -999 -999 -999
2007-06-22 05:59:23 51°13.639 2°55.952 -999 -999 -999 -999 -999
2007-06-22 05:59:28 51°13.643 2°55.943 -999 -999 -999 -999 -999
2007-06-22 05:59:33 51°13.647 2°55.934 -999 -999 -999 -999 -999
2007-06-22 05:59:38 51°13.651 2°55.925 -999 -999 -999 -999 -999
2007-06-22 05:59:43 51°13.655 2°55.915 -999 -999 -999 -999 -999
2007-06-22 05:59:48 51°13.659 2°55.906 -999 -999 -999 -999 -999
2007-06-22 05:59:53 51°13.663 2°55.897 -999 -999 -999 -999 -999
2007-06-22 05:59:58 51°13.667 2°55.888 -999 -999 -999 -999 -999
2007-06-22 06:00:03 51°13.671 2°55.878 -999 -999 -999 -999 -999
2007-06-22 06:00:08 51°13.675 2°55.869 -999 -999 -999 -999 -999
2007-06-22 06:00:13 51°13.679 2°55.86 -999 -999 -999 -999 -999
2007-06-22 06:00:18 51°13.682 2°55.851 -999 -999 -999 -999 -999
2007-06-22 06:00:23 51°13.686 2°55.843 -999 -999 -999 -999 -999
2007-06-22 06:00:28 51°13.689 2°55.834 -999 -999 -999 -999 -999
2007-06-22 06:00:33 51°13.691 2°55.826 -999 -999 -999 -999 -999
2007-06-22 06:00:38 51°13.694 2°55.819 -999 -999 -999 -999 -999
2007-06-22 06:00:43 51°13.696 2°55.811 -999 -999 -999 -999 -999
2007-06-22 06:00:48 51°13.699 2°55.803 -999 -999 -999 -999 -999
2007-06-22 06:00:53 51°13.701 2°55.796 -999 -999 -999 -999 -999
2007-06-22 06:00:58 51°13.703 2°55.789 -999 -999 -999 -999 -999
2007-06-22 06:01:03 51°13.704 2°55.782 -999 -999 -999 -999 -999
2007-06-22 06:01:08 51°13.706 2°55.775 -999 -999 -999 -999 -999
2007-06-22 06:01:13 51°13.708 2°55.769 -999 -999 -999 -999 -999
2007-06-22 06:01:18 51°13.709 2°55.762 -999 -999 -999 -999 -999
2007-06-22 06:01:23 51°13.71 2°55.756 -999 -999 -999 -999 -999
2007-06-22 06:01:28 51°13.711 2°55.75 -999 -999 -999 -999 -999
2007-06-22 06:01:33 51°13.712 2°55.745 -999 -999 -999 -999 -999
2007-06-22 06:01:38 51°13.713 2°55.739 -999 -999 -999 -999 -999
2007-06-22 06:01:42 51°13.713 2°55.735 -999 -999 -999 -999 -999
2007-06-22 06:01:48 51°13.714 2°55.729 -999 -999 -999 -999 -999
2007-06-22 06:01:53 51°13.715 2°55.724 -999 -999 -999 -999 -999
2007-06-22 06:01:58 51°13.715 2°55.719 -999 -999 -999 -999 -999
2007-06-22 06:02:02 51°13.715 2°55.715 -999 -999 -999 -999 -999
2007-06-22 06:02:08 51°13.716 2°55.71 -999 -999 -999 -999 -999
2007-06-22 06:02:13 51°13.716 2°55.707 -999 -999 -999 -999 -999
2007-06-22 06:02:18 51°13.716 2°55.704 -999 -999 -999 -999 -999
2007-06-22 06:02:23 51°13.716 2°55.701 -999 -999 -999 -999 -999
2007-06-22 06:02:28 51°13.716 2°55.699 -999 -999 -999 -999 -999
2007-06-22 06:02:33 51°13.717 2°55.698 -999 -999 -999 -999 -999
2007-06-22 06:02:38 51°13.717 2°55.696 -999 -999 -999 -999 -999
2007-06-22 06:02:43 51°13.717 2°55.695 -999 -999 -999 -999 -999
2007-06-22 06:02:48 51°13.717 2°55.694 -999 -999 -999 -999 -999
2007-06-22 06:02:53 51°13.718 2°55.693 -999 -999 -999 -999 -999
2007-06-22 06:02:58 51°13.718 2°55.693 -999 -999 -999 -999 -999
2007-06-22 06:03:03 51°13.718 2°55.692 -999 -999 -999 -999 -999
2007-06-22 06:03:08 51°13.719 2°55.692 -999 -999 -999 -999 -999
2007-06-22 06:03:13 51°13.72 2°55.692 -999 -999 -999 -999 -999
2007-06-22 06:03:18 51°13.721 2°55.692 -999 -999 -999 -999 -999
2007-06-22 06:03:23 51°13.723 2°55.693 -999 -999 -999 -999 -999
2007-06-22 06:03:28 51°13.726 2°55.695 -999 -999 -999 -999 -999
2007-06-22 06:03:33 51°13.73 2°55.696 -999 -999 -999 -999 -999
2007-06-22 06:03:38 51°13.734 2°55.696 -999 -999 -999 -999 -999
2007-06-22 06:03:42 51°13.738 2°55.696 -999 -999 -999 -999 -999
2007-06-22 06:03:48 51°13.743 2°55.694 -999 -999 -999 -999 -999
2007-06-22 06:03:53 51°13.747 2°55.692 -999 -999 -999 -999 -999
2007-06-22 06:03:58 51°13.752 2°55.69 -999 -999 -999 -999 -999
2007-06-22 06:04:02 51°13.757 2°55.688 -999 -999 -999 -999 -999
2007-06-22 06:04:08 51°13.763 2°55.683 -999 -999 -999 -999 -999
2007-06-22 06:04:13 51°13.769 2°55.68 -999 -999 -999 -999 -999
2007-06-22 06:04:18 51°13.776 2°55.676 -999 -999 -999 -999 -999
2007-06-22 06:04:23 51°13.782 2°55.671 -999 -999 -999 -999 -999
2007-06-22 06:04:28 51°13.789 2°55.666 -999 -999 -999 -999 -999
2007-06-22 06:04:33 51°13.796 2°55.661 -999 -999 -999 -999 -999
2007-06-22 06:04:38 51°13.804 2°55.655 -999 -999 -999 -999 -999
2007-06-22 06:04:43 51°13.812 2°55.649 -999 -999 -999 -999 -999
2007-06-22 06:04:48 51°13.82 2°55.643 -999 -999 -999 -999 -999
2007-06-22 06:04:53 51°13.829 2°55.637 -999 -999 -999 -999 -999
2007-06-22 06:04:58 51°13.838 2°55.63 -999 -999 -999 -999 -999
2007-06-22 06:05:03 51°13.847 2°55.624 -999 -999 -999 -999 -999
2007-06-22 06:05:08 51°13.856 2°55.617 -999 -999 -999 -999 -999
2007-06-22 06:05:13 51°13.866 2°55.611 -999 -999 -999 -999 -999
2007-06-22 06:05:17 51°13.874 2°55.605 -999 -999 -999 -999 -999
2007-06-22 06:05:23 51°13.886 2°55.597 -999 -999 -999 -999 -999
2007-06-22 06:05:28 51°13.896 2°55.59 -999 -999 -999 -999 -999
2007-06-22 06:05:33 51°13.905 2°55.583 -999 -999 -999 -999 -999
2007-06-22 06:05:38 51°13.916 2°55.576 -999 -999 -999 -999 -999
2007-06-22 06:05:42 51°13.924 2°55.571 -999 -999 -999 -999 -999
2007-06-22 06:05:48 51°13.936 2°55.562 -999 -999 -999 -999 -999
2007-06-22 06:05:53 51°13.947 2°55.555 -999 -999 -999 -999 -999
2007-06-22 06:05:58 51°13.957 2°55.548 -999 -999 -999 -999 -999
2007-06-22 06:06:02 51°13.966 2°55.542 -999 -999 -999 -999 -999
2007-06-22 06:06:08 51°13.978 2°55.532 -999 -999 -999 -999 -999
2007-06-22 06:06:13 51°13.989 2°55.525 -999 -999 -999 -999 -999
2007-06-22 06:06:18 51°14 2°55.517 -999 -999 -999 -999 -999
2007-06-22 06:06:23 51°14.01 2°55.509 -999 -999 -999 -999 -999
2007-06-22 06:06:28 51°14.021 2°55.502 -999 -999 -999 -999 -999
2007-06-22 06:06:33 51°14.032 2°55.495 -999 -999 -999 -999 -999
2007-06-22 06:06:38 51°14.042 2°55.488 -999 -999 -999 -999 -999
2007-06-22 06:06:43 51°14.053 2°55.481 -999 -999 -999 -999 -999
2007-06-22 06:06:48 51°14.063 2°55.474 -999 -999 -999 -999 -999
2007-06-22 06:06:53 51°14.073 2°55.467 -999 -999 -999 -999 -999
2007-06-22 06:06:58 51°14.082 2°55.46 -999 -999 -999 -999 -999
2007-06-22 06:07:03 51°14.092 2°55.453 -999 -999 -999 -999 -999
2007-06-22 06:07:08 51°14.102 2°55.446 -999 -999 -999 -999 -999
2007-06-22 06:07:13 51°14.111 2°55.438 -999 -999 -999 -999 -999
2007-06-22 06:07:18 51°14.12 2°55.431 -999 -999 -999 -999 -999
2007-06-22 06:07:23 51°14.129 2°55.423 -999 -999 -999 -999 -999
2007-06-22 06:07:28 51°14.139 2°55.415 -999 -999 -999 -999 -999
2007-06-22 06:07:33 51°14.148 2°55.407 -999 -999 -999 -999 -999
2007-06-22 06:07:38 51°14.157 2°55.398 -999 -999 -999 -999 -999
2007-06-22 06:07:43 51°14.166 2°55.389 -999 -999 -999 -999 -999
2007-06-22 06:07:48 51°14.176 2°55.379 -999 -999 -999 -999 -999
2007-06-22 06:07:53 51°14.185 2°55.369 -999 -999 -999 -999 -999
2007-06-22 06:07:57 51°14.193 2°55.361 -999 -999 -999 -999 -999
2007-06-22 06:08:03 51°14.204 2°55.347 -999 -999 -999 -999 -999
2007-06-22 06:08:08 51°14.213 2°55.336 -999 -999 -999 -999 -999
2007-06-22 06:08:13 51°14.223 2°55.323 -999 -999 -999 -999 -999
2007-06-22 06:08:18 51°14.232 2°55.311 -999 -999 -999 -999 -999
2007-06-22 06:08:23 51°14.242 2°55.297 -999 -999 -999 -999 -999
2007-06-22 06:08:28 51°14.251 2°55.282 -999 -999 -999 -999 -999
2007-06-22 06:08:33 51°14.261 2°55.266 -999 -999 -999 -999 -999
2007-06-22 06:08:38 51°14.271 2°55.25 -999 -999 -999 -999 -999
2007-06-22 06:08:43 51°14.28 2°55.232 -999 -999 -999 -999 -999
2007-06-22 06:08:48 51°14.29 2°55.214 -999 -999 -999 -999 -999
2007-06-22 06:08:53 51°14.3 2°55.195 -999 -999 -999 -999 -999
2007-06-22 06:08:58 51°14.31 2°55.176 -999 -999 -999 -999 -999
2007-06-22 06:09:03 51°14.32 2°55.158 -999 -999 -999 -999 -999
2007-06-22 06:09:08 51°14.33 2°55.139 -999 -999 -999 -999 -999
2007-06-22 06:09:13 51°14.341 2°55.119 -999 -999 -999 -999 -999
2007-06-22 06:09:18 51°14.351 2°55.1 -999 -999 -999 -999 -999
2007-06-22 06:09:23 51°14.361 2°55.08 -999 -999 -999 -999 -999
2007-06-22 06:09:28 51°14.372 2°55.06 -999 -999 -999 -999 -999
2007-06-22 06:09:33 51°14.383 2°55.04 -999 -999 -999 -999 -999
2007-06-22 06:09:38 51°14.394 2°55.019 -999 -999 -999 -999 -999
2007-06-22 06:09:43 51°14.406 2°54.998 -999 -999 -999 -999 -999
2007-06-22 06:09:48 51°14.418 2°54.977 -999 -999 -999 -999 -999
2007-06-22 06:09:53 51°14.43 2°54.956 -999 -999 -999 -999 -999
2007-06-22 06:09:57 51°14.44 2°54.94 -999 -999 -999 -999 -999
2007-06-22 06:10:03 51°14.455 2°54.915 -999 -999 -999 -999 -999
2007-06-22 06:10:08 51°14.468 2°54.894 -999 -999 -999 -999 -999
2007-06-22 06:10:13 51°14.482 2°54.874 -999 -999 -999 -999 -999
2007-06-22 06:10:18 51°14.495 2°54.854 -999 -999 -999 -999 -999
2007-06-22 06:10:22 51°14.506 2°54.839 -999 -999 -999 -999 -999
2007-06-22 06:10:28 51°14.522 2°54.816 -999 -999 -999 -999 -999
2007-06-22 06:10:33 51°14.534 2°54.795 -999 -999 -999 -999 -999
2007-06-22 06:10:38 51°14.546 2°54.773 -999 -999 -999 -999 -999
2007-06-22 06:10:43 51°14.556 2°54.751 -999 -999 -999 -999 -999
2007-06-22 06:10:48 51°14.566 2°54.727 -999 -999 -999 -999 -999
2007-06-22 06:10:53 51°14.575 2°54.704 -999 -999 -999 -999 -999
2007-06-22 06:10:58 51°14.584 2°54.679 -999 -999 -999 -999 -999
2007-06-22 06:11:03 51°14.592 2°54.654 -999 -999 -999 -999 -999
2007-06-22 06:11:08 51°14.601 2°54.63 -999 -999 -999 -999 -999
2007-06-22 06:11:13 51°14.61 2°54.605 -999 -999 -999 -999 -999
2007-06-22 06:11:18 51°14.618 2°54.579 -999 -999 -999 -999 -999
2007-06-22 06:11:23 51°14.626 2°54.554 -999 -999 -999 -999 -999
2007-06-22 06:11:28 51°14.634 2°54.528 -999 -999 -999 -999 -999
2007-06-22 06:11:33 51°14.642 2°54.503 -999 -999 -999 -999 -999
2007-06-22 06:11:38 51°14.65 2°54.477 -999 -999 -999 -999 -999
2007-06-22 06:11:43 51°14.658 2°54.452 -999 -999 -999 -999 -999
2007-06-22 06:11:48 51°14.666 2°54.426 -999 -999 -999 -999 -999
2007-06-22 06:11:53 51°14.673 2°54.4 -999 -999 -999 -999 -999
2007-06-22 06:11:58 51°14.678 2°54.374 -999 -999 -999 -999 -999
2007-06-22 06:12:03 51°14.684 2°54.347 -999 -999 -999 -999 -999
2007-06-22 06:12:08 51°14.689 2°54.32 -999 -999 -999 -999 -999
2007-06-22 06:12:13 51°14.694 2°54.293 -999 -999 -999 -999 -999
2007-06-22 06:12:18 51°14.698 2°54.266 -999 -999 -999 -999 -999
2007-06-22 06:12:23 51°14.702 2°54.239 -999 -999 -999 -999 -999
2007-06-22 06:12:28 51°14.706 2°54.212 -999 -999 -999 -999 -999
2007-06-22 06:12:33 51°14.71 2°54.185 -999 -999 -999 -999 -999
2007-06-22 06:12:38 51°14.714 2°54.158 -999 -999 -999 -999 -999
2007-06-22 06:12:43 51°14.717 2°54.131 -999 -999 -999 -999 -999
2007-06-22 06:12:48 51°14.721 2°54.104 -999 -999 -999 -999 -999
2007-06-22 06:12:53 51°14.724 2°54.077 -999 -999 -999 -999 -999
2007-06-22 06:12:58 51°14.726 2°54.05 -999 -999 -999 -999 -999
2007-06-22 06:13:03 51°14.728 2°54.022 -999 -999 -999 -999 -999
2007-06-22 06:13:08 51°14.729 2°53.995 -999 -999 -999 -999 -999
2007-06-22 06:13:13 51°14.73 2°53.967 -999 -999 -999 -999 -999
2007-06-22 06:13:18 51°14.731 2°53.94 -999 -999 -999 -999 -999
2007-06-22 06:13:22 51°14.731 2°53.918 -999 -999 -999 -999 -999
2007-06-22 06:13:28 51°14.731 2°53.884 -999 -999 -999 -999 -999
2007-06-22 06:13:33 51°14.731 2°53.856 -999 -999 -999 -999 -999
2007-06-22 06:13:38 51°14.731 2°53.829 -999 -999 -999 -999 -999
2007-06-22 06:13:43 51°14.731 2°53.801 -999 -999 -999 -999 -999
2007-06-22 06:13:48 51°14.732 2°53.772 -999 -999 -999 -999 -999
2007-06-22 06:13:53 51°14.733 2°53.744 -999 -999 -999 -999 -999
2007-06-22 06:13:58 51°14.733 2°53.716 -999 -999 -999 -999 -999
2007-06-22 06:14:02 51°14.733 2°53.694 -999 -999 -999 -999 -999
2007-06-22 06:14:08 51°14.733 2°53.66 -999 -999 -999 -999 -999
2007-06-22 06:14:13 51°14.733 2°53.632 -999 -999 -999 -999 -999
2007-06-22 06:14:18 51°14.734 2°53.604 -999 -999 -999 -999 -999
2007-06-22 06:14:22 51°14.735 2°53.581 -999 -999 -999 -999 -999
2007-06-22 06:14:28 51°14.736 2°53.547 -999 -999 -999 -999 -999
2007-06-22 06:14:33 51°14.737 2°53.519 -999 -999 -999 -999 -999
2007-06-22 06:14:37 51°14.737 2°53.497 -999 -999 -999 -999 -999
2007-06-22 06:14:43 51°14.738 2°53.463 -999 -999 -999 -999 -999
2007-06-22 06:14:48 51°14.739 2°53.435 -999 -999 -999 -999 -999
2007-06-22 06:14:53 51°14.739 2°53.406 -999 -999 -999 -999 -999
2007-06-22 06:14:57 51°14.74 2°53.384 -999 -999 -999 -999 -999
2007-06-22 06:15:02 51°14.74 2°53.356 -999 -999 -999 -999 -999
2007-06-22 06:15:08 51°14.741 2°53.322 -999 -999 -999 -999 -999
2007-06-22 06:15:13 51°14.744 2°53.294 -999 -999 -999 -999 -999
2007-06-22 06:15:17 51°14.745 2°53.272 -999 -999 -999 -999 -999
2007-06-22 06:15:22 51°14.749 2°53.244 -999 -999 -999 -999 -999
2007-06-22 06:15:28 51°14.753 2°53.211 -999 -999 -999 -999 -999
2007-06-22 06:15:33 51°14.757 2°53.183 -999 -999 -999 -999 -999
2007-06-22 06:15:38 51°14.761 2°53.156 -999 -999 -999 -999 -999
2007-06-22 06:15:42 51°14.765 2°53.134 -999 -999 -999 -999 -999
2007-06-22 06:15:48 51°14.771 2°53.101 -999 -999 -999 -999 -999
2007-06-22 06:15:53 51°14.775 2°53.073 -999 -999 -999 -999 -999
2007-06-22 06:15:57 51°14.779 2°53.052 -999 -999 -999 -999 -999
2007-06-22 06:16:02 51°14.784 2°53.024 -999 -999 -999 -999 -999
2007-06-22 06:16:08 51°14.789 2°52.991 -999 -999 -999 -999 -999
2007-06-22 06:16:13 51°14.794 2°52.964 -999 -999 -999 -999 -999
2007-06-22 06:16:17 51°14.798 2°52.942 -999 -999 -999 -999 -999
2007-06-22 06:16:22 51°14.802 2°52.914 -999 -999 -999 -999 -999
2007-06-22 06:16:27 51°14.807 2°52.887 -999 -999 -999 -999 -999
2007-06-22 06:16:33 51°14.812 2°52.854 -999 -999 -999 -999 -999
2007-06-22 06:16:38 51°14.817 2°52.827 -999 -999 -999 -999 -999
2007-06-22 06:16:42 51°14.82 2°52.805 -999 -999 -999 -999 -999
2007-06-22 06:16:48 51°14.826 2°52.772 -999 -999 -999 -999 -999
2007-06-22 06:16:53 51°14.83 2°52.744 -999 -999 -999 -999 -999
2007-06-22 06:16:58 51°14.835 2°52.717 -999 -999 -999 -999 -999
2007-06-22 06:17:03 51°14.839 2°52.69 -999 -999 -999 -999 -999
2007-06-22 06:17:08 51°14.844 2°52.662 -999 -999 -999 -999 -999
2007-06-22 06:17:13 51°14.848 2°52.635 -999 -999 -999 -999 -999
2007-06-22 06:17:17 51°14.852 2°52.613 -999 -999 -999 -999 -999
2007-06-22 06:17:23 51°14.857 2°52.58 -999 -999 -999 -999 -999
2007-06-22 06:17:28 51°14.862 2°52.553 -999 -999 -999 -999 -999
2007-06-22 06:17:33 51°14.866 2°52.525 -999 -999 -999 -999 -999
2007-06-22 06:17:37 51°14.87 2°52.504 -999 -999 -999 -999 -999
2007-06-22 06:17:42 51°14.874 2°52.477 -999 -999 -999 -999 -999
2007-06-22 06:17:48 51°14.88 2°52.444 -999 -999 -999 -999 -999
2007-06-22 06:17:53 51°14.884 2°52.417 -999 -999 -999 -999 -999
2007-06-22 06:17:57 51°14.888 2°52.395 -999 -999 -999 -999 -999
2007-06-22 06:18:02 51°14.892 2°52.368 -999 -999 -999 -999 -999
2007-06-22 06:18:08 51°14.898 2°52.336 -999 -999 -999 -999 -999
2007-06-22 06:18:13 51°14.902 2°52.308 -999 -999 -999 -999 -999
2007-06-22 06:18:17 51°14.906 2°52.287 -999 -999 -999 -999 -999
2007-06-22 06:18:22 51°14.91 2°52.259 -999 -999 -999 -999 -999
2007-06-22 06:18:27 51°14.914 2°52.232 -999 -999 -999 -999 -999
2007-06-22 06:18:33 51°14.92 2°52.2 -999 -999 -999 -999 -999
2007-06-22 06:18:38 51°14.924 2°52.172 -999 -999 -999 -999 -999
2007-06-22 06:18:42 51°14.928 2°52.151 -999 -999 -999 -999 -999
2007-06-22 06:18:48 51°14.933 2°52.118 -999 -999 -999 -999 -999
2007-06-22 06:18:53 51°14.938 2°52.091 -999 -999 -999 -999 -999
2007-06-22 06:18:58 51°14.943 2°52.064 -999 -999 -999 -999 -999
2007-06-22 06:19:03 51°14.947 2°52.037 -999 -999 -999 -999 -999
2007-06-22 06:19:08 51°14.952 2°52.01 -999 -999 -999 -999 -999
2007-06-22 06:19:13 51°14.956 2°51.983 -999 -999 -999 -999 -999
2007-06-22 06:19:17 51°14.96 2°51.961 -999 -999 -999 -999 -999
2007-06-22 06:19:23 51°14.966 2°51.928 -999 -999 -999 -999 -999
2007-06-22 06:19:28 51°14.971 2°51.901 -999 -999 -999 -999 -999
2007-06-22 06:19:33 51°14.976 2°51.874 -999 -999 -999 -999 -999
2007-06-22 06:19:37 51°14.979 2°51.853 -999 -999 -999 -999 -999
2007-06-22 06:19:42 51°14.984 2°51.825 -999 -999 -999 -999 -999
2007-06-22 06:19:48 51°14.99 2°51.793 -999 -999 -999 -999 -999
2007-06-22 06:19:53 51°14.994 2°51.766 -999 -999 -999 -999 -999
2007-06-22 06:19:57 51°14.998 2°51.744 -999 -999 -999 -999 -999
2007-06-22 06:20:02 51°15.003 2°51.717 -999 -999 -999 -999 -999
2007-06-22 06:20:08 51°15.009 2°51.685 -999 -999 -999 -999 -999
2007-06-22 06:20:13 51°15.013 2°51.658 -999 -999 -999 -999 -999
2007-06-22 06:20:17 51°15.017 2°51.636 -999 -999 -999 -999 -999
2007-06-22 06:20:22 51°15.022 2°51.609 -999 -999 -999 -999 -999
2007-06-22 06:20:27 51°15.027 2°51.582 -999 -999 -999 -999 -999
2007-06-22 06:20:33 51°15.032 2°51.55 -999 -999 -999 -999 -999
2007-06-22 06:20:37 51°15.036 2°51.528 -999 -999 -999 -999 -999
2007-06-22 06:20:42 51°15.041 2°51.501 -999 -999 -999 -999 -999
2007-06-22 06:20:47 51°15.045 2°51.474 -999 -999 -999 -999 -999
2007-06-22 06:20:53 51°15.051 2°51.442 -999 -999 -999 -999 -999
2007-06-22 06:20:58 51°15.056 2°51.415 -999 -999 -999 -999 -999
2007-06-22 06:21:02 51°15.06 2°51.394 -999 -999 -999 -999 -999
2007-06-22 06:21:08 51°15.065 2°51.361 -999 -999 -999 -999 -999
2007-06-22 06:21:13 51°15.07 2°51.334 -999 -999 -999 -999 -999
2007-06-22 06:21:17 51°15.074 2°51.313 -999 -999 -999 -999 -999
2007-06-22 06:21:23 51°15.08 2°51.28 -999 -999 -999 -999 -999
2007-06-22 06:21:28 51°15.084 2°51.253 -999 -999 -999 -999 -999
2007-06-22 06:21:33 51°15.089 2°51.227 -999 -999 -999 -999 -999
2007-06-22 06:21:37 51°15.093 2°51.205 -999 -999 -999 -999 -999
2007-06-22 06:21:42 51°15.097 2°51.178 -999 -999 -999 -999 -999
2007-06-22 06:21:48 51°15.103 2°51.145 -999 -999 -999 -999 -999
2007-06-22 06:21:53 51°15.108 2°51.118 -999 -999 -999 -999 -999
2007-06-22 06:21:57 51°15.112 2°51.096 -999 -999 -999 -999 -999
2007-06-22 06:22:02 51°15.116 2°51.07 -999 -999 -999 -999 -999
2007-06-22 06:22:08 51°15.122 2°51.037 -999 -999 -999 -999 -999
2007-06-22 06:22:13 51°15.127 2°51.01 -999 -999 -999 -999 -999
2007-06-22 06:22:17 51°15.131 2°50.989 -999 -999 -999 -999 -999
2007-06-22 06:22:22 51°15.136 2°50.962 -999 -999 -999 -999 -999
2007-06-22 06:22:27 51°15.141 2°50.935 -999 -999 -999 -999 -999
2007-06-22 06:22:33 51°15.147 2°50.902 -999 -999 -999 -999 -999
2007-06-22 06:22:37 51°15.15 2°50.881 -999 -999 -999 -999 -999
2007-06-22 06:22:42 51°15.155 2°50.854 -999 -999 -999 -999 -999
2007-06-22 06:22:47 51°15.159 2°50.827 -999 -999 -999 -999 -999
2007-06-22 06:22:53 51°15.165 2°50.794 -999 -999 -999 -999 -999
2007-06-22 06:22:58 51°15.169 2°50.767 -999 -999 -999 -999 -999
2007-06-22 06:23:02 51°15.173 2°50.745 -999 -999 -999 -999 -999
2007-06-22 06:23:08 51°15.179 2°50.713 -999 -999 -999 -999 -999
2007-06-22 06:23:13 51°15.184 2°50.686 -999 -999 -999 -999 -999
2007-06-22 06:23:18 51°15.189 2°50.659 -999 -999 -999 -999 -999
2007-06-22 06:23:23 51°15.194 2°50.632 -999 -999 -999 -999 -999
2007-06-22 06:23:28 51°15.198 2°50.605 -999 -999 -999 -999 -999
2007-06-22 06:23:33 51°15.203 2°50.577 -999 -999 -999 -999 -999
2007-06-22 06:23:38 51°15.208 2°50.55 -999 -999 -999 -999 -999
2007-06-22 06:23:42 51°15.212 2°50.529 -999 -999 -999 -999 -999
2007-06-22 06:23:48 51°15.217 2°50.496 -999 -999 -999 -999 -999
2007-06-22 06:23:53 51°15.222 2°50.469 -999 -999 -999 -999 -999
2007-06-22 06:23:57 51°15.226 2°50.447 -999 -999 -999 -999 -999
2007-06-22 06:24:03 51°15.231 2°50.415 -999 -999 -999 -999 -999
2007-06-22 06:24:08 51°15.236 2°50.388 -999 -999 -999 -999 -999
2007-06-22 06:24:13 51°15.241 2°50.361 -999 -999 -999 -999 -999
2007-06-22 06:24:17 51°15.245 2°50.339 -999 -999 -999 -999 -999
2007-06-22 06:24:22 51°15.25 2°50.312 -999 -999 -999 -999 -999
2007-06-22 06:24:28 51°15.258 2°50.281 -999 -999 -999 -999 -999
2007-06-22 06:24:33 51°15.265 2°50.255 -999 -999 -999 -999 -999
2007-06-22 06:24:37 51°15.272 2°50.235 -999 -999 -999 -999 -999
2007-06-22 06:24:42 51°15.28 2°50.209 -999 -999 -999 -999 -999
2007-06-22 06:24:48 51°15.29 2°50.179 -999 -999 -999 -999 -999
2007-06-22 06:24:53 51°15.298 2°50.154 -999 -999 -999 -999 -999
2007-06-22 06:24:57 51°15.305 2°50.134 -999 -999 -999 -999 -999
2007-06-22 06:25:02 51°15.314 2°50.109 -999 -999 -999 -999 -999
2007-06-22 06:25:07 51°15.323 2°50.084 -999 -999 -999 -999 -999
2007-06-22 06:25:13 51°15.333 2°50.054 -999 -999 -999 -999 -999
2007-06-22 06:25:18 51°15.341 2°50.028 -999 -999 -999 -999 -999
2007-06-22 06:25:22 51°15.348 2°50.008 -999 -999 -999 -999 -999
2007-06-22 06:25:28 51°15.357 2°49.977 -999 -999 -999 -999 -999
2007-06-22 06:25:33 51°15.365 2°49.951 -999 -999 -999 -999 -999
2007-06-22 06:25:38 51°15.372 2°49.925 -999 -999 -999 -999 -999
2007-06-22 06:25:42 51°15.378 2°49.905 -999 -999 -999 -999 -999
2007-06-22 06:25:48 51°15.387 2°49.874 -999 -999 -999 -999 -999
2007-06-22 06:25:53 51°15.394 2°49.848 -999 -999 -999 -999 -999
2007-06-22 06:25:57 51°15.4 2°49.827 -999 -999 -999 -999 -999
2007-06-22 06:26:02 51°15.407 2°49.801 -999 -999 -999 -999 -999
2007-06-22 06:26:08 51°15.416 2°49.77 -999 -999 -999 -999 -999
2007-06-22 06:26:13 51°15.423 2°49.744 -999 -999 -999 -999 -999
2007-06-22 06:26:17 51°15.429 2°49.723 -999 -999 -999 -999 -999
2007-06-22 06:26:23 51°15.437 2°49.692 -999 -999 -999 -999 -999
2007-06-22 06:26:28 51°15.444 2°49.666 -999 -999 -999 -999 -999
2007-06-22 06:26:33 51°15.451 2°49.64 -999 -999 -999 -999 -999
2007-06-22 06:26:37 51°15.456 2°49.619 -999 -999 -999 -999 -999
2007-06-22 06:26:42 51°15.463 2°49.593 -999 -999 -999 -999 -999
2007-06-22 06:26:48 51°15.471 2°49.562 -999 -999 -999 -999 -999
2007-06-22 06:26:53 51°15.478 2°49.535 -999 -999 -999 -999 -999
2007-06-22 06:26:57 51°15.484 2°49.514 -999 -999 -999 -999 -999
2007-06-22 06:27:02 51°15.491 2°49.488 -999 -999 -999 -999 -999
2007-06-22 06:27:07 51°15.498 2°49.462 -999 -999 -999 -999 -999
2007-06-22 06:27:13 51°15.507 2°49.431 -999 -999 -999 -999 -999
2007-06-22 06:27:18 51°15.514 2°49.405 -999 -999 -999 -999 -999
2007-06-22 06:27:22 51°15.519 2°49.384 -999 -999 -999 -999 -999
2007-06-22 06:27:28 51°15.528 2°49.353 -999 -999 -999 -999 -999
2007-06-22 06:27:33 51°15.535 2°49.327 -999 -999 -999 -999 -999
2007-06-22 06:27:38 51°15.542 2°49.301 -999 -999 -999 -999 -999
2007-06-22 06:27:42 51°15.547 2°49.28 -999 -999 -999 -999 -999
2007-06-22 06:27:48 51°15.555 2°49.249 -999 -999 -999 -999 -999
2007-06-22 06:27:53 51°15.562 2°49.223 -999 -999 -999 -999 -999
2007-06-22 06:27:58 51°15.569 2°49.197 -999 -999 -999 -999 -999
2007-06-22 06:28:02 51°15.574 2°49.176 -999 -999 -999 -999 -999
2007-06-22 06:28:08 51°15.583 2°49.145 -999 -999 -999 -999 -999
2007-06-22 06:28:13 51°15.59 2°49.118 -999 -999 -999 -999 -999
2007-06-22 06:28:18 51°15.597 2°49.092 -999 -999 -999 -999 -999
2007-06-22 06:28:23 51°15.603 2°49.066 -999 -999 -999 -999 -999
2007-06-22 06:28:28 51°15.61 2°49.04 -999 -999 -999 -999 -999
2007-06-22 06:28:33 51°15.617 2°49.014 -999 -999 -999 -999 -999
2007-06-22 06:28:37 51°15.623 2°48.993 -999 -999 -999 -999 -999
2007-06-22 06:28:43 51°15.631 2°48.962 -999 -999 -999 -999 -999
2007-06-22 06:28:48 51°15.638 2°48.936 -999 -999 -999 -999 -999
2007-06-22 06:28:53 51°15.645 2°48.91 -999 -999 -999 -999 -999
2007-06-22 06:28:57 51°15.651 2°48.889 -999 -999 -999 -999 -999
2007-06-22 06:29:02 51°15.658 2°48.863 -999 -999 -999 -999 -999
2007-06-22 06:29:08 51°15.666 2°48.832 -999 -999 -999 -999 -999
2007-06-22 06:29:13 51°15.673 2°48.806 -999 -999 -999 -999 -999
2007-06-22 06:29:17 51°15.679 2°48.785 -999 -999 -999 -999 -999
2007-06-22 06:29:22 51°15.686 2°48.759 -999 -999 -999 -999 -999
2007-06-22 06:29:28 51°15.694 2°48.728 -999 -999 -999 -999 -999
2007-06-22 06:29:33 51°15.702 2°48.702 -999 -999 -999 -999 -999
2007-06-22 06:29:38 51°15.708 2°48.676 -999 -999 -999 -999 -999
2007-06-22 06:29:42 51°15.714 2°48.655 -999 -999 -999 -999 -999
2007-06-22 06:29:48 51°15.722 2°48.623 -999 -999 -999 -999 -999
2007-06-22 06:29:53 51°15.729 2°48.597 -999 -999 -999 -999 -999
2007-06-22 06:29:57 51°15.735 2°48.576 -999 -999 -999 -999 -999
2007-06-22 06:30:02 51°15.741 2°48.55 -999 -999 -999 -999 -999
2007-06-22 06:30:08 51°15.75 2°48.518 -999 -999 -999 -999 -999
2007-06-22 06:30:13 51°15.757 2°48.492 -999 -999 -999 -999 -999
2007-06-22 06:30:18 51°15.764 2°48.466 -999 -999 -999 -999 -999
2007-06-22 06:30:22 51°15.77 2°48.445 -999 -999 -999 -999 -999
2007-06-22 06:30:28 51°15.778 2°48.413 -999 -999 -999 -999 -999
2007-06-22 06:30:33 51°15.785 2°48.387 -999 -999 -999 -999 -999
2007-06-22 06:30:37 51°15.79 2°48.366 -999 -999 -999 -999 -999
2007-06-22 06:30:43 51°15.799 2°48.335 -999 -999 -999 -999 -999
2007-06-22 06:30:48 51°15.806 2°48.308 -999 -999 -999 -999 -999
2007-06-22 06:30:53 51°15.813 2°48.282 -999 -999 -999 -999 -999
2007-06-22 06:30:57 51°15.819 2°48.261 -999 -999 -999 -999 -999
2007-06-22 06:31:03 51°15.827 2°48.23 -999 -999 -999 -999 -999
2007-06-22 06:31:08 51°15.835 2°48.204 -999 -999 -999 -999 -999
2007-06-22 06:31:13 51°15.842 2°48.178 -999 -999 -999 -999 -999
2007-06-22 06:31:17 51°15.848 2°48.158 -999 -999 -999 -999 -999
2007-06-22 06:31:22 51°15.855 2°48.132 -999 -999 -999 -999 -999
2007-06-22 06:31:28 51°15.864 2°48.101 -999 -999 -999 -999 -999
2007-06-22 06:31:33 51°15.871 2°48.075 -999 -999 -999 -999 -999
2007-06-22 06:31:38 51°15.878 2°48.05 -999 -999 -999 -999 -999
2007-06-22 06:31:42 51°15.884 2°48.029 -999 -999 -999 -999 -999
2007-06-22 06:31:48 51°15.892 2°47.998 -999 -999 -999 -999 -999
2007-06-22 06:31:53 51°15.899 2°47.972 -999 -999 -999 -999 -999
2007-06-22 06:31:57 51°15.905 2°47.952 -999 -999 -999 -999 -999
2007-06-22 06:32:02 51°15.911 2°47.925 -999 -999 -999 -999 -999
2007-06-22 06:32:08 51°15.919 2°47.894 -999 -999 -999 -999 -999
2007-06-22 06:32:13 51°15.926 2°47.868 -999 -999 -999 -999 -999
2007-06-22 06:32:18 51°15.932 2°47.842 -999 -999 -999 -999 -999
2007-06-22 06:32:22 51°15.937 2°47.821 -999 -999 -999 -999 -999
2007-06-22 06:32:28 51°15.945 2°47.79 -999 -999 -999 -999 -999
2007-06-22 06:32:33 51°15.952 2°47.764 -999 -999 -999 -999 -999
2007-06-22 06:32:37 51°15.957 2°47.744 -999 -999 -999 -999 -999
2007-06-22 06:32:43 51°15.965 2°47.713 -999 -999 -999 -999 -999
2007-06-22 06:32:48 51°15.971 2°47.687 -999 -999 -999 -999 -999
2007-06-22 06:32:53 51°15.978 2°47.661 -999 -999 -999 -999 -999
2007-06-22 06:32:57 51°15.983 2°47.64 -999 -999 -999 -999 -999
2007-06-22 06:33:03 51°15.991 2°47.609 -999 -999 -999 -999 -999
2007-06-22 06:33:08 51°15.997 2°47.583 -999 -999 -999 -999 -999
2007-06-22 06:33:13 51°16.004 2°47.558 -999 -999 -999 -999 -999
2007-06-22 06:33:17 51°16.009 2°47.537 -999 -999 -999 -999 -999
2007-06-22 06:33:22 51°16.016 2°47.511 -999 -999 -999 -999 -999
2007-06-22 06:33:28 51°16.024 2°47.48 -999 -999 -999 -999 -999
2007-06-22 06:33:33 51°16.031 2°47.454 -999 -999 -999 -999 -999
2007-06-22 06:33:37 51°16.036 2°47.434 -999 -999 -999 -999 -999
2007-06-22 06:33:42 51°16.043 2°47.408 -999 -999 -999 -999 -999
2007-06-22 06:33:48 51°16.051 2°47.377 -999 -999 -999 -999 -999
2007-06-22 06:33:53 51°16.058 2°47.352 -999 -999 -999 -999 -999
2007-06-22 06:33:57 51°16.063 2°47.331 -999 -999 -999 -999 -999
2007-06-22 06:34:02 51°16.07 2°47.305 -999 -999 -999 -999 -999
2007-06-22 06:34:08 51°16.077 2°47.274 -999 -999 -999 -999 -999
2007-06-22 06:34:13 51°16.084 2°47.248 -999 -999 -999 -999 -999
2007-06-22 06:34:17 51°16.089 2°47.227 -999 -999 -999 -999 -999
2007-06-22 06:34:22 51°16.095 2°47.201 -999 -999 -999 -999 -999
2007-06-22 06:34:27 51°16.102 2°47.175 -999 -999 -999 -999 -999
2007-06-22 06:34:33 51°16.11 2°47.144 -999 -999 -999 -999 -999
2007-06-22 06:34:38 51°16.116 2°47.118 -999 -999 -999 -999 -999
2007-06-22 06:34:42 51°16.121 2°47.098 -999 -999 -999 -999 -999
2007-06-22 06:34:48 51°16.129 2°47.066 -999 -999 -999 -999 -999
2007-06-22 06:34:53 51°16.136 2°47.041 -999 -999 -999 -999 -999
2007-06-22 06:34:58 51°16.142 2°47.015 -999 -999 -999 -999 -999
2007-06-22 06:35:03 51°16.149 2°46.989 -999 -999 -999 -999 -999
2007-06-22 06:35:08 51°16.155 2°46.963 -999 -999 -999 -999 -999
2007-06-22 06:35:13 51°16.161 2°46.937 -999 -999 -999 -999 -999
2007-06-22 06:35:17 51°16.166 2°46.916 -999 -999 -999 -999 -999
2007-06-22 06:35:23 51°16.174 2°46.885 -999 -999 -999 -999 -999
2007-06-22 06:35:28 51°16.18 2°46.859 -999 -999 -999 -999 -999
2007-06-22 06:35:33 51°16.187 2°46.833 -999 -999 -999 -999 -999
2007-06-22 06:35:37 51°16.192 2°46.813 -999 -999 -999 -999 -999
2007-06-22 06:35:43 51°16.2 2°46.782 -999 -999 -999 -999 -999
2007-06-22 06:35:48 51°16.207 2°46.756 -999 -999 -999 -999 -999
2007-06-22 06:35:53 51°16.213 2°46.73 -999 -999 -999 -999 -999
2007-06-22 06:35:57 51°16.218 2°46.709 -999 -999 -999 -999 -999
2007-06-22 06:36:02 51°16.225 2°46.683 -999 -999 -999 -999 -999
2007-06-22 06:36:08 51°16.233 2°46.652 -999 -999 -999 -999 -999
2007-06-22 06:36:13 51°16.24 2°46.626 -999 -999 -999 -999 -999
2007-06-22 06:36:17 51°16.245 2°46.605 -999 -999 -999 -999 -999
2007-06-22 06:36:22 51°16.251 2°46.578 -999 -999 -999 -999 -999
2007-06-22 06:36:27 51°16.257 2°46.552 -999 -999 -999 -999 -999
2007-06-22 06:36:33 51°16.265 2°46.521 -999 -999 -999 -999 -999
2007-06-22 06:36:38 51°16.272 2°46.495 -999 -999 -999 -999 -999
2007-06-22 06:36:42 51°16.277 2°46.474 -999 -999 -999 -999 -999
2007-06-22 06:36:48 51°16.285 2°46.443 -999 -999 -999 -999 -999
2007-06-22 06:36:53 51°16.292 2°46.417 -999 -999 -999 -999 -999
2007-06-22 06:36:58 51°16.299 2°46.391 -999 -999 -999 -999 -999
2007-06-22 06:37:03 51°16.305 2°46.365 -999 -999 -999 -999 -999
2007-06-22 06:37:08 51°16.312 2°46.339 -999 -999 -999 -999 -999
2007-06-22 06:37:13 51°16.318 2°46.313 -999 -999 -999 -999 -999
2007-06-22 06:37:17 51°16.324 2°46.292 -999 -999 -999 -999 -999
2007-06-22 06:37:23 51°16.331 2°46.26 -999 -999 -999 -999 -999
2007-06-22 06:37:28 51°16.338 2°46.233 -999 -999 -999 -999 -999
2007-06-22 06:37:33 51°16.345 2°46.207 -999 -999 -999 -999 -999
2007-06-22 06:37:37 51°16.35 2°46.186 -999 -999 -999 -999 -999
2007-06-22 06:37:43 51°16.358 2°46.154 -999 -999 -999 -999 -999
2007-06-22 06:37:48 51°16.365 2°46.128 -999 -999 -999 -999 -999
2007-06-22 06:37:53 51°16.371 2°46.101 -999 -999 -999 -999 -999
2007-06-22 06:37:57 51°16.377 2°46.08 -999 -999 -999 -999 -999
2007-06-22 06:38:03 51°16.385 2°46.048 -999 -999 -999 -999 -999
2007-06-22 06:38:08 51°16.392 2°46.022 -999 -999 -999 -999 -999
2007-06-22 06:38:13 51°16.398 2°45.995 -999 -999 -999 -999 -999
2007-06-22 06:38:17 51°16.403 2°45.973 -999 -999 -999 -999 -999
2007-06-22 06:38:22 51°16.41 2°45.946 -999 -999 -999 -999 -999
2007-06-22 06:38:27 51°16.416 2°45.92 -999 -999 -999 -999 -999
2007-06-22 06:38:33 51°16.424 2°45.888 -999 -999 -999 -999 -999
2007-06-22 06:38:37 51°16.43 2°45.867 -999 -999 -999 -999 -999
2007-06-22 06:38:42 51°16.437 2°45.84 -999 -999 -999 -999 -999
2007-06-22 06:38:47 51°16.443 2°45.813 -999 -999 -999 -999 -999
2007-06-22 06:38:53 51°16.451 2°45.781 -999 -999 -999 -999 -999
2007-06-22 06:38:58 51°16.458 2°45.755 -999 -999 -999 -999 -999
2007-06-22 06:39:02 51°16.464 2°45.733 -999 -999 -999 -999 -999
2007-06-22 06:39:08 51°16.473 2°45.702 -999 -999 -999 -999 -999
2007-06-22 06:39:13 51°16.481 2°45.675 -999 -999 -999 -999 -999
2007-06-22 06:39:18 51°16.489 2°45.65 -999 -999 -999 -999 -999
2007-06-22 06:39:23 51°16.497 2°45.624 -999 -999 -999 -999 -999
2007-06-22 06:39:28 51°16.506 2°45.598 -999 -999 -999 -999 -999
2007-06-22 06:39:33 51°16.515 2°45.572 -999 -999 -999 -999 -999
2007-06-22 06:39:37 51°16.522 2°45.552 -999 -999 -999 -999 -999
2007-06-22 06:39:42 51°16.53 2°45.526 -999 -999 -999 -999 -999
2007-06-22 06:39:48 51°16.54 2°45.495 -999 -999 -999 -999 -999
2007-06-22 06:39:53 51°16.548 2°45.47 -999 -999 -999 -999 -999
2007-06-22 06:39:57 51°16.555 2°45.449 -999 -999 -999 -999 -999
2007-06-22 06:40:03 51°16.566 2°45.418 -999 -999 -999 -999 -999
2007-06-22 06:40:08 51°16.574 2°45.392 -999 -999 -999 -999 -999
2007-06-22 06:40:13 51°16.583 2°45.367 -999 -999 -999 -999 -999
2007-06-22 06:40:17 51°16.589 2°45.346 -999 -999 -999 -999 -999
2007-06-22 06:40:22 51°16.598 2°45.32 -999 -999 -999 -999 -999
2007-06-22 06:40:28 51°16.608 2°45.29 -999 -999 -999 -999 -999
2007-06-22 06:40:33 51°16.616 2°45.264 -999 -999 -999 -999 -999
2007-06-22 06:40:37 51°16.623 2°45.243 -999 -999 -999 -999 -999
2007-06-22 06:40:42 51°16.632 2°45.217 -999 -999 -999 -999 -999
2007-06-22 06:40:48 51°16.642 2°45.187 -999 -999 -999 -999 -999
2007-06-22 06:40:53 51°16.651 2°45.161 -999 -999 -999 -999 -999
2007-06-22 06:40:58 51°16.659 2°45.136 -999 -999 -999 -999 -999
2007-06-22 06:41:02 51°16.666 2°45.115 -999 -999 -999 -999 -999
2007-06-22 06:41:08 51°16.677 2°45.085 -999 -999 -999 -999 -999
2007-06-22 06:41:13 51°16.686 2°45.059 -999 -999 -999 -999 -999
2007-06-22 06:41:18 51°16.694 2°45.033 -999 -999 -999 -999 -999
2007-06-22 06:41:23 51°16.703 2°45.008 -999 -999 -999 -999 -999
2007-06-22 06:41:28 51°16.712 2°44.982 -999 -999 -999 -999 -999
2007-06-22 06:41:33 51°16.721 2°44.957 -999 -999 -999 -999 -999
2007-06-22 06:41:38 51°16.729 2°44.931 -999 -999 -999 -999 -999
2007-06-22 06:41:42 51°16.736 2°44.911 -999 -999 -999 -999 -999
2007-06-22 06:41:48 51°16.746 2°44.88 -999 -999 -999 -999 -999
2007-06-22 06:41:53 51°16.755 2°44.855 -999 -999 -999 -999 -999
2007-06-22 06:41:57 51°16.762 2°44.834 -999 -999 -999 -999 -999
2007-06-22 06:42:03 51°16.772 2°44.803 -999 -999 -999 -999 -999
2007-06-22 06:42:08 51°16.78 2°44.777 -999 -999 -999 -999 -999
2007-06-22 06:42:13 51°16.788 2°44.751 -999 -999 -999 -999 -999
2007-06-22 06:42:17 51°16.795 2°44.73 -999 -999 -999 -999 -999
2007-06-22 06:42:23 51°16.805 2°44.7 -999 -999 -999 -999 -999
2007-06-22 06:42:28 51°16.814 2°44.674 -999 -999 -999 -999 -999
2007-06-22 06:42:33 51°16.823 2°44.648 -999 -999 -999 -999 -999
2007-06-22 06:42:37 51°16.83 2°44.627 -999 -999 -999 -999 -999
2007-06-22 06:42:42 51°16.838 2°44.601 -999 -999 -999 -999 -999
2007-06-22 06:42:48 51°16.849 2°44.571 -999 -999 -999 -999 -999
2007-06-22 06:42:53 51°16.857 2°44.545 -999 -999 -999 -999 -999
2007-06-22 06:42:57 51°16.865 2°44.525 -999 -999 -999 -999 -999
2007-06-22 06:43:02 51°16.874 2°44.499 -999 -999 -999 -999 -999
2007-06-22 06:43:07 51°16.883 2°44.475 -999 -999 -999 -999 -999
2007-06-22 06:43:13 51°16.894 2°44.444 -999 -999 -999 -999 -999
2007-06-22 06:43:18 51°16.904 2°44.419 -999 -999 -999 -999 -999
2007-06-22 06:43:22 51°16.911 2°44.399 -999 -999 -999 -999 -999
2007-06-22 06:43:28 51°16.922 2°44.369 -999 -999 -999 -999 -999
2007-06-22 06:43:33 51°16.931 2°44.343 -999 -999 -999 -999 -999
2007-06-22 06:43:38 51°16.941 2°44.318 -999 -999 -999 -999 -999
2007-06-22 06:43:42 51°16.948 2°44.298 -999 -999 -999 -999 -999
2007-06-22 06:43:48 51°16.959 2°44.268 -999 -999 -999 -999 -999
2007-06-22 06:43:53 51°16.968 2°44.242 -999 -999 -999 -999 -999
2007-06-22 06:43:58 51°16.977 2°44.217 -999 -999 -999 -999 -999
2007-06-22 06:44:02 51°16.984 2°44.197 -999 -999 -999 -999 -999
2007-06-22 06:44:08 51°16.995 2°44.167 -999 -999 -999 -999 -999
2007-06-22 06:44:13 51°17.004 2°44.141 -999 -999 -999 -999 -999
2007-06-22 06:44:17 51°17.011 2°44.121 -999 -999 -999 -999 -999
2007-06-22 06:44:23 51°17.022 2°44.09 -999 -999 -999 -999 -999
2007-06-22 06:44:28 51°17.031 2°44.065 -999 -999 -999 -999 -999
2007-06-22 06:44:33 51°17.04 2°44.04 -999 -999 -999 -999 -999
2007-06-22 06:44:37 51°17.048 2°44.02 -999 -999 -999 -999 -999
2007-06-22 06:44:42 51°17.057 2°43.995 -999 -999 -999 -999 -999
2007-06-22 06:44:48 51°17.068 2°43.964 -999 -999 -999 -999 -999
2007-06-22 06:44:53 51°17.077 2°43.939 -999 -999 -999 -999 -999
2007-06-22 06:44:57 51°17.084 2°43.919 -999 -999 -999 -999 -999
2007-06-22 06:45:02 51°17.093 2°43.893 -999 -999 -999 -999 -999
2007-06-22 06:45:08 51°17.103 2°43.863 -999 -999 -999 -999 -999
2007-06-22 06:45:13 51°17.112 2°43.838 -999 -999 -999 -999 -999
2007-06-22 06:45:18 51°17.121 2°43.812 -999 -999 -999 -999 -999
2007-06-22 06:45:22 51°17.128 2°43.792 -999 -999 -999 -999 -999
2007-06-22 06:45:28 51°17.138 2°43.762 -999 -999 -999 -999 -999
2007-06-22 06:45:33 51°17.147 2°43.736 -999 -999 -999 -999 -999
2007-06-22 06:45:38 51°17.156 2°43.711 -999 -999 -999 -999 -999
2007-06-22 06:45:42 51°17.163 2°43.69 -999 -999 -999 -999 -999
2007-06-22 06:45:48 51°17.173 2°43.66 -999 -999 -999 -999 -999
2007-06-22 06:45:53 51°17.182 2°43.634 -999 -999 -999 -999 -999
2007-06-22 06:45:58 51°17.191 2°43.609 -999 -999 -999 -999 -999
2007-06-22 06:46:02 51°17.198 2°43.589 -999 -999 -999 -999 -999
2007-06-22 06:46:08 51°17.209 2°43.558 -999 -999 -999 -999 -999
2007-06-22 06:46:13 51°17.217 2°43.533 -999 -999 -999 -999 -999
2007-06-22 06:46:18 51°17.226 2°43.507 -999 -999 -999 -999 -999
2007-06-22 06:46:23 51°17.235 2°43.482 -999 -999 -999 -999 -999
2007-06-22 06:46:28 51°17.245 2°43.457 -999 -999 -999 -999 -999
2007-06-22 06:46:33 51°17.253 2°43.431 -999 -999 -999 -999 -999
2007-06-22 06:46:37 51°17.261 2°43.412 -999 -999 -999 -999 -999
2007-06-22 06:46:43 51°17.271 2°43.381 -999 -999 -999 -999 -999
2007-06-22 06:46:48 51°17.28 2°43.356 -999 -999 -999 -999 -999
2007-06-22 06:46:53 51°17.289 2°43.33 -999 -999 -999 -999 -999
2007-06-22 06:46:57 51°17.296 2°43.311 -999 -999 -999 -999 -999
2007-06-22 06:47:02 51°17.305 2°43.285 -999 -999 -999 -999 -999
2007-06-22 06:47:08 51°17.316 2°43.255 -999 -999 -999 -999 -999
2007-06-22 06:47:13 51°17.324 2°43.23 -999 -999 -999 -999 -999
2007-06-22 06:47:17 51°17.331 2°43.21 -999 -999 -999 -999 -999
2007-06-22 06:47:22 51°17.34 2°43.184 -999 -999 -999 -999 -999
2007-06-22 06:47:28 51°17.351 2°43.154 -999 -999 -999 -999 -999
2007-06-22 06:47:33 51°17.359 2°43.129 -999 -999 -999 -999 -999
2007-06-22 06:47:38 51°17.368 2°43.104 -999 -999 -999 -999 -999
2007-06-22 06:47:42 51°17.376 2°43.084 -999 -999 -999 -999 -999
2007-06-22 06:47:48 51°17.387 2°43.054 -999 -999 -999 -999 -999
2007-06-22 06:47:53 51°17.396 2°43.029 -999 -999 -999 -999 -999
2007-06-22 06:47:57 51°17.403 2°43.009 -999 -999 -999 -999 -999
2007-06-22 06:48:02 51°17.412 2°42.984 -999 -999 -999 -999 -999
2007-06-22 06:48:08 51°17.423 2°42.954 -999 -999 -999 -999 -999
2007-06-22 06:48:13 51°17.431 2°42.93 -999 -999 -999 -999 -999
2007-06-22 06:48:18 51°17.441 2°42.905 -999 -999 -999 -999 -999
2007-06-22 06:48:22 51°17.448 2°42.885 -999 -999 -999 -999 -999
2007-06-22 06:48:28 51°17.459 2°42.856 -999 -999 -999 -999 -999
2007-06-22 06:48:33 51°17.468 2°42.831 -999 -999 -999 -999 -999
2007-06-22 06:48:38 51°17.477 2°42.806 -999 -999 -999 -999 -999
2007-06-22 06:48:43 51°17.486 2°42.781 -999 -999 -999 -999 -999
2007-06-22 06:48:48 51°17.496 2°42.756 -999 -999 -999 -999 -999
2007-06-22 06:48:53 51°17.505 2°42.731 -999 -999 -999 -999 -999
2007-06-22 06:48:57 51°17.512 2°42.711 -999 -999 -999 -999 -999
2007-06-22 06:49:03 51°17.523 2°42.681 -999 -999 -999 -999 -999
2007-06-22 06:49:08 51°17.533 2°42.656 -999 -999 -999 -999 -999
2007-06-22 06:49:13 51°17.543 2°42.631 -999 -999 -999 -999 -999
2007-06-22 06:49:17 51°17.55 2°42.611 -999 -999 -999 -999 -999
2007-06-22 06:49:22 51°17.56 2°42.586 -999 -999 -999 -999 -999
2007-06-22 06:49:28 51°17.572 2°42.556 -999 -999 -999 -999 -999
2007-06-22 06:49:33 51°17.582 2°42.532 -999 -999 -999 -999 -999
2007-06-22 06:49:38 51°17.591 2°42.507 -999 -999 -999 -999 -999
2007-06-22 06:49:42 51°17.599 2°42.487 -999 -999 -999 -999 -999
2007-06-22 06:49:48 51°17.611 2°42.458 -999 -999 -999 -999 -999
2007-06-22 06:49:53 51°17.621 2°42.433 -999 -999 -999 -999 -999
2007-06-22 06:49:57 51°17.628 2°42.413 -999 -999 -999 -999 -999
2007-06-22 06:50:02 51°17.637 2°42.388 -999 -999 -999 -999 -999
2007-06-22 06:50:08 51°17.648 2°42.358 -999 -999 -999 -999 -999
2007-06-22 06:50:13 51°17.658 2°42.333 -999 -999 -999 -999 -999
2007-06-22 06:50:18 51°17.667 2°42.307 -999 -999 -999 -999 -999
2007-06-22 06:50:22 51°17.674 2°42.287 -999 -999 -999 -999 -999
2007-06-22 06:50:28 51°17.685 2°42.257 -999 -999 -999 -999 -999
2007-06-22 06:50:33 51°17.694 2°42.232 -999 -999 -999 -999 -999
2007-06-22 06:50:38 51°17.703 2°42.207 -999 -999 -999 -999 -999
2007-06-22 06:50:43 51°17.713 2°42.182 -999 -999 -999 -999 -999
2007-06-22 06:50:48 51°17.722 2°42.157 -999 -999 -999 -999 -999
2007-06-22 06:50:53 51°17.731 2°42.132 -999 -999 -999 -999 -999
2007-06-22 06:50:58 51°17.74 2°42.107 -999 -999 -999 -999 -999
2007-06-22 06:51:03 51°17.749 2°42.082 -999 -999 -999 -999 -999
2007-06-22 06:51:08 51°17.758 2°42.057 -999 -999 -999 -999 -999
2007-06-22 06:51:13 51°17.767 2°42.032 -999 -999 -999 -999 -999
2007-06-22 06:51:17 51°17.775 2°42.012 -999 -999 -999 -999 -999
2007-06-22 06:51:23 51°17.786 2°41.982 -999 -999 -999 -999 -999
2007-06-22 06:51:28 51°17.795 2°41.957 -999 -999 -999 -999 -999
2007-06-22 06:51:33 51°17.804 2°41.932 -999 -999 -999 -999 -999
2007-06-22 06:51:37 51°17.811 2°41.912 -999 -999 -999 -999 -999
2007-06-22 06:51:43 51°17.821 2°41.882 -999 -999 -999 -999 -999
2007-06-22 06:51:48 51°17.831 2°41.857 -999 -999 -999 -999 -999
2007-06-22 06:51:53 51°17.84 2°41.832 -999 -999 -999 -999 -999
2007-06-22 06:51:57 51°17.847 2°41.812 -999 -999 -999 -999 -999
2007-06-22 06:52:02 51°17.856 2°41.787 -999 -999 -999 -999 -999
2007-06-22 06:52:08 51°17.867 2°41.757 -999 -999 -999 -999 -999
2007-06-22 06:52:13 51°17.876 2°41.731 -999 -999 -999 -999 -999
2007-06-22 06:52:17 51°17.883 2°41.711 -999 -999 -999 -999 -999
2007-06-22 06:52:22 51°17.892 2°41.686 -999 -999 -999 -999 -999
2007-06-22 06:52:27 51°17.901 2°41.661 -999 -999 -999 -999 -999
2007-06-22 06:52:33 51°17.911 2°41.631 -999 -999 -999 -999 -999
2007-06-22 06:52:38 51°17.92 2°41.606 -999 -999 -999 -999 -999
2007-06-22 06:52:42 51°17.927 2°41.585 -999 -999 -999 -999 -999
2007-06-22 06:52:48 51°17.938 2°41.555 -999 -999 -999 -999 -999
2007-06-22 06:52:53 51°17.947 2°41.53 -999 -999 -999 -999 -999
2007-06-22 06:52:58 51°17.956 2°41.505 -999 -999 -999 -999 -999
2007-06-22 06:53:03 51°17.965 2°41.48 -999 -999 -999 -999 -999
2007-06-22 06:53:08 51°17.974 2°41.455 -999 -999 -999 -999 -999
2007-06-22 06:53:13 51°17.983 2°41.429 -999 -999 -999 -999 -999
2007-06-22 06:53:18 51°17.992 2°41.405 -999 -999 -999 -999 -999
2007-06-22 06:53:23 51°18 2°41.379 -999 -999 -999 -999 -999
2007-06-22 06:53:28 51°18.01 2°41.354 -999 -999 -999 -999 -999
2007-06-22 06:53:33 51°18.019 2°41.329 -999 -999 -999 -999 -999
2007-06-22 06:53:37 51°18.026 2°41.309 -999 -999 -999 -999 -999
2007-06-22 06:53:43 51°18.037 2°41.279 -999 -999 -999 -999 -999
2007-06-22 06:53:48 51°18.046 2°41.254 -999 -999 -999 -999 -999
2007-06-22 06:53:53 51°18.055 2°41.229 -999 -999 -999 -999 -999
2007-06-22 06:53:57 51°18.062 2°41.209 -999 -999 -999 -999 -999
2007-06-22 06:54:02 51°18.071 2°41.184 -999 -999 -999 -999 -999
2007-06-22 06:54:08 51°18.081 2°41.153 -999 -999 -999 -999 -999
2007-06-22 06:54:13 51°18.09 2°41.129 -999 -999 -999 -999 -999
2007-06-22 06:54:17 51°18.097 2°41.108 -999 -999 -999 -999 -999
2007-06-22 06:54:22 51°18.107 2°41.084 -999 -999 -999 -999 -999
2007-06-22 06:54:27 51°18.115 2°41.059 -999 -999 -999 -999 -999
2007-06-22 06:54:33 51°18.126 2°41.029 -999 -999 -999 -999 -999
2007-06-22 06:54:38 51°18.136 2°41.005 -999 -999 -999 -999 -999
2007-06-22 06:54:42 51°18.143 2°40.985 -999 -999 -999 -999 -999
2007-06-22 06:54:48 51°18.155 2°40.956 -999 -999 -999 -999 -999
2007-06-22 06:54:53 51°18.165 2°40.932 -999 -999 -999 -999 -999
2007-06-22 06:54:58 51°18.174 2°40.908 -999 -999 -999 -999 -999
2007-06-22 06:55:03 51°18.184 2°40.884 -999 -999 -999 -999 -999
2007-06-22 06:55:08 51°18.194 2°40.86 -999 -999 -999 -999 -999
2007-06-22 06:55:13 51°18.204 2°40.837 -999 -999 -999 -999 -999
2007-06-22 06:55:18 51°18.214 2°40.814 -999 -999 -999 -999 -999
2007-06-22 06:55:23 51°18.224 2°40.79 -999 -999 -999 -999 -999
2007-06-22 06:55:28 51°18.234 2°40.766 -999 -999 -999 -999 -999
2007-06-22 06:55:33 51°18.244 2°40.743 -999 -999 -999 -999 -999
2007-06-22 06:55:37 51°18.252 2°40.723 -999 -999 -999 -999 -999
2007-06-22 06:55:43 51°18.263 2°40.694 -999 -999 -999 -999 -999
2007-06-22 06:55:48 51°18.272 2°40.669 -999 -999 -999 -999 -999
2007-06-22 06:55:53 51°18.283 2°40.646 -999 -999 -999 -999 -999
2007-06-22 06:55:57 51°18.291 2°40.626 -999 -999 -999 -999 -999
2007-06-22 06:56:03 51°18.302 2°40.598 -999 -999 -999 -999 -999
2007-06-22 06:56:08 51°18.312 2°40.573 -999 -999 -999 -999 -999
2007-06-22 06:56:13 51°18.321 2°40.549 -999 -999 -999 -999 -999
2007-06-22 06:56:17 51°18.329 2°40.529 -999 -999 -999 -999 -999
2007-06-22 06:56:23 51°18.34 2°40.5 -999 -999 -999 -999 -999
2007-06-22 06:56:28 51°18.35 2°40.477 -999 -999 -999 -999 -999
2007-06-22 06:56:33 51°18.36 2°40.453 -999 -999 -999 -999 -999
2007-06-22 06:56:38 51°18.369 2°40.429 -999 -999 -999 -999 -999
2007-06-22 06:56:42 51°18.377 2°40.41 -999 -999 -999 -999 -999
2007-06-22 06:56:48 51°18.389 2°40.381 -999 -999 -999 -999 -999
2007-06-22 06:56:53 51°18.399 2°40.358 -999 -999 -999 -999 -999
2007-06-22 06:56:58 51°18.41 2°40.335 -999 -999 -999 -999 -999
2007-06-22 06:57:02 51°18.418 2°40.317 -999 -999 -999 -999 -999
2007-06-22 06:57:08 51°18.43 2°40.29 -999 -999 -999 -999 -999
2007-06-22 06:57:13 51°18.441 2°40.267 -999 -999 -999 -999 -999
2007-06-22 06:57:18 51°18.451 2°40.243 -999 -999 -999 -999 -999
2007-06-22 06:57:23 51°18.461 2°40.22 -999 -999 -999 -999 -999
2007-06-22 06:57:28 51°18.471 2°40.197 -999 -999 -999 -999 -999
2007-06-22 06:57:33 51°18.482 2°40.173 -999 -999 -999 -999 -999
2007-06-22 06:57:38 51°18.493 2°40.15 -999 -999 -999 -999 -999
2007-06-22 06:57:42 51°18.501 2°40.13 -999 -999 -999 -999 -999
2007-06-22 06:57:48 51°18.513 2°40.102 -999 -999 -999 -999 -999
2007-06-22 06:57:53 51°18.524 2°40.078 -999 -999 -999 -999 -999
2007-06-22 06:57:58 51°18.534 2°40.054 -999 -999 -999 -999 -999
2007-06-22 06:58:03 51°18.544 2°40.03 -999 -999 -999 -999 -999
2007-06-22 06:58:08 51°18.554 2°40.006 -999 -999 -999 -999 -999
2007-06-22 06:58:13 51°18.564 2°39.981 -999 -999 -999 -999 -999
2007-06-22 06:58:17 51°18.573 2°39.962 -999 -999 -999 -999 -999
2007-06-22 06:58:23 51°18.585 2°39.933 -999 -999 -999 -999 -999
2007-06-22 06:58:28 51°18.596 2°39.909 -999 -999 -999 -999 -999
2007-06-22 06:58:33 51°18.606 2°39.884 -999 -999 -999 -999 -999
2007-06-22 06:58:37 51°18.614 2°39.864 -999 -999 -999 -999 -999
2007-06-22 06:58:42 51°18.624 2°39.84 -999 -999 -999 -999 -999
2007-06-22 06:58:48 51°18.637 2°39.811 -999 -999 -999 -999 -999
2007-06-22 06:58:53 51°18.648 2°39.787 -999 -999 -999 -999 -999
2007-06-22 06:58:58 51°18.658 2°39.763 -999 -999 -999 -999 -999
2007-06-22 06:59:02 51°18.666 2°39.744 -999 -999 -999 -999 -999
2007-06-22 06:59:08 51°18.68 2°39.715 -999 -999 -999 -999 -999
2007-06-22 06:59:13 51°18.69 2°39.69 -999 -999 -999 -999 -999
2007-06-22 06:59:18 51°18.701 2°39.666 -999 -999 -999 -999 -999
2007-06-22 06:59:23 51°18.711 2°39.642 -999 -999 -999 -999 -999
2007-06-22 06:59:28 51°18.721 2°39.617 -999 -999 -999 -999 -999
2007-06-22 06:59:33 51°18.731 2°39.593 -999 -999 -999 -999 -999
2007-06-22 06:59:38 51°18.741 2°39.568 -999 -999 -999 -999 -999
2007-06-22 06:59:42 51°18.75 2°39.549 -999 -999 -999 -999 -999
2007-06-22 06:59:48 51°18.762 2°39.519 -999 -999 -999 -999 -999
2007-06-22 06:59:53 51°18.771 2°39.494 -999 -999 -999 -999 -999
2007-06-22 06:59:58 51°18.782 2°39.47 -999 -999 -999 -999 -999
2007-06-22 07:00:03 51°18.792 2°39.445 -999 -999 -999 -999 -999
2007-06-22 07:00:08 51°18.802 2°39.42 -999 -999 -999 -999 -999
2007-06-22 07:00:13 51°18.813 2°39.396 -999 -999 -999 -999 -999
2007-06-22 07:00:17 51°18.821 2°39.377 -999 -999 -999 -999 -999
2007-06-22 07:00:23 51°18.833 2°39.347 -999 -999 -999 -999 -999
2007-06-22 07:00:28 51°18.843 2°39.322 -999 -999 -999 -999 -999
2007-06-22 07:00:33 51°18.853 2°39.297 -999 -999 -999 -999 -999
2007-06-22 07:00:37 51°18.861 2°39.278 -999 -999 -999 -999 -999
2007-06-22 07:00:42 51°18.87 2°39.253 -999 -999 -999 -999 -999
2007-06-22 07:00:48 51°18.882 2°39.224 -999 -999 -999 -999 -999
2007-06-22 07:00:53 51°18.892 2°39.199 -999 -999 -999 -999 -999
2007-06-22 07:00:58 51°18.902 2°39.175 -999 -999 -999 -999 -999
2007-06-22 07:01:02 51°18.91 2°39.155 -999 -999 -999 -999 -999
2007-06-22 07:01:08 51°18.922 2°39.126 -999 -999 -999 -999 -999
2007-06-22 07:01:13 51°18.932 2°39.101 -999 -999 -999 -999 -999
2007-06-22 07:01:18 51°18.942 2°39.076 -999 -999 -999 -999 -999
2007-06-22 07:01:22 51°18.95 2°39.056 -999 -999 -999 -999 -999
2007-06-22 07:01:28 51°18.961 2°39.027 -999 -999 -999 -999 -999
2007-06-22 07:01:33 51°18.971 2°39.002 -999 -999 -999 -999 -999
2007-06-22 07:01:38 51°18.981 2°38.977 -999 -999 -999 -999 -999
2007-06-22 07:01:42 51°18.989 2°38.957 -999 -999 -999 -999 -999
2007-06-22 07:01:48 51°19.001 2°38.928 -999 -999 -999 -999 -999
2007-06-22 07:01:53 51°19.011 2°38.903 -999 -999 -999 -999 -999
2007-06-22 07:01:58 51°19.021 2°38.878 -999 -999 -999 -999 -999
2007-06-22 07:02:02 51°19.029 2°38.859 -999 -999 -999 -999 -999
2007-06-22 07:02:08 51°19.041 2°38.829 -999 -999 -999 -999 -999
2007-06-22 07:02:13 51°19.05 2°38.804 -999 -999 -999 -999 -999
2007-06-22 07:02:18 51°19.059 2°38.779 -999 -999 -999 -999 -999
2007-06-22 07:02:23 51°19.069 2°38.754 -999 -999 -999 -999 -999
2007-06-22 07:02:28 51°19.079 2°38.729 -999 -999 -999 -999 -999
2007-06-22 07:02:33 51°19.089 2°38.705 -999 -999 -999 -999 -999
2007-06-22 07:02:38 51°19.098 2°38.68 -999 -999 -999 -999 -999
2007-06-22 07:02:43 51°19.108 2°38.655 -999 -999 -999 -999 -999
2007-06-22 07:02:48 51°19.117 2°38.63 -999 -999 -999 -999 -999
2007-06-22 07:02:53 51°19.127 2°38.606 -999 -999 -999 -999 -999
2007-06-22 07:02:57 51°19.134 2°38.585 -999 -999 -999 -999 -999
2007-06-22 07:03:03 51°19.146 2°38.556 -999 -999 -999 -999 -999
2007-06-22 07:03:08 51°19.156 2°38.531 -999 -999 -999 -999 -999
2007-06-22 07:03:13 51°19.166 2°38.507 -999 -999 -999 -999 -999
2007-06-22 07:03:18 51°19.175 2°38.482 -999 -999 -999 -999 -999
2007-06-22 07:03:22 51°19.183 2°38.462 -999 -999 -999 -999 -999
2007-06-22 07:03:28 51°19.195 2°38.433 -999 -999 -999 -999 -999
2007-06-22 07:03:33 51°19.206 2°38.408 -999 -999 -999 -999 -999
2007-06-22 07:03:38 51°19.215 2°38.384 -999 -999 -999 -999 -999
2007-06-22 07:03:42 51°19.223 2°38.363 -999 -999 -999 -999 -999
2007-06-22 07:03:48 51°19.236 2°38.334 -999 -999 -999 -999 -999
2007-06-22 07:03:53 51°19.245 2°38.31 -999 -999 -999 -999 -999
2007-06-22 07:03:58 51°19.255 2°38.286 -999 -999 -999 -999 -999
2007-06-22 07:04:02 51°19.263 2°38.266 -999 -999 -999 -999 -999
2007-06-22 07:04:08 51°19.275 2°38.236 -999 -999 -999 -999 -999
2007-06-22 07:04:13 51°19.284 2°38.211 -999 -999 -999 -999 -999
2007-06-22 07:04:18 51°19.293 2°38.186 -999 -999 -999 -999 -999
2007-06-22 07:04:23 51°19.303 2°38.162 -999 -999 -999 -999 -999
2007-06-22 07:04:28 51°19.312 2°38.137 -999 -999 -999 -999 -999
2007-06-22 07:04:33 51°19.323 2°38.112 -999 -999 -999 -999 -999
2007-06-22 07:04:38 51°19.332 2°38.087 -999 -999 -999 -999 -999
2007-06-22 07:04:43 51°19.342 2°38.063 -999 -999 -999 -999 -999
2007-06-22 07:04:48 51°19.351 2°38.038 -999 -999 -999 -999 -999
2007-06-22 07:04:53 51°19.361 2°38.014 -999 -999 -999 -999 -999
2007-06-22 07:04:57 51°19.369 2°37.994 -999 -999 -999 -999 -999
2007-06-22 07:05:03 51°19.381 2°37.965 -999 -999 -999 -999 -999
2007-06-22 07:05:08 51°19.39 2°37.94 -999 -999 -999 -999 -999
2007-06-22 07:05:13 51°19.4 2°37.915 -999 -999 -999 -999 -999
2007-06-22 07:05:18 51°19.41 2°37.891 -999 -999 -999 -999 -999
2007-06-22 07:05:22 51°19.417 2°37.871 -999 -999 -999 -999 -999
2007-06-22 07:05:28 51°19.43 2°37.842 -999 -999 -999 -999 -999
2007-06-22 07:05:33 51°19.439 2°37.817 -999 -999 -999 -999 -999
2007-06-22 07:05:38 51°19.449 2°37.793 -999 -999 -999 -999 -999
2007-06-22 07:05:42 51°19.457 2°37.773 -999 -999 -999 -999 -999
2007-06-22 07:05:48 51°19.469 2°37.744 -999 -999 -999 -999 -999
2007-06-22 07:05:53 51°19.479 2°37.72 -999 -999 -999 -999 -999
2007-06-22 07:05:57 51°19.487 2°37.7 -999 -999 -999 -999 -999
2007-06-22 07:06:02 51°19.497 2°37.676 -999 -999 -999 -999 -999
2007-06-22 07:06:08 51°19.509 2°37.647 -999 -999 -999 -999 -999
2007-06-22 07:06:13 51°19.519 2°37.623 -999 -999 -999 -999 -999
2007-06-22 07:06:18 51°19.528 2°37.599 -999 -999 -999 -999 -999
2007-06-22 07:06:22 51°19.536 2°37.58 -999 -999 -999 -999 -999
2007-06-22 07:06:28 51°19.548 2°37.551 -999 -999 -999 -999 -999
2007-06-22 07:06:33 51°19.558 2°37.527 -999 -999 -999 -999 -999
2007-06-22 07:06:38 51°19.567 2°37.502 -999 -999 -999 -999 -999
2007-06-22 07:06:43 51°19.578 2°37.479 -999 -999 -999 -999 -999
2007-06-22 07:06:48 51°19.587 2°37.454 -999 -999 -999 -999 -999
2007-06-22 07:06:53 51°19.597 2°37.43 -999 -999 -999 -999 -999
2007-06-22 07:06:57 51°19.605 2°37.41 -999 -999 -999 -999 -999
2007-06-22 07:07:03 51°19.617 2°37.381 -999 -999 -999 -999 -999
2007-06-22 07:07:08 51°19.626 2°37.357 -999 -999 -999 -999 -999
2007-06-22 07:07:13 51°19.636 2°37.333 -999 -999 -999 -999 -999
2007-06-22 07:07:17 51°19.644 2°37.313 -999 -999 -999 -999 -999
2007-06-22 07:07:23 51°19.656 2°37.284 -999 -999 -999 -999 -999
2007-06-22 07:07:28 51°19.665 2°37.259 -999 -999 -999 -999 -999
2007-06-22 07:07:33 51°19.674 2°37.235 -999 -999 -999 -999 -999
2007-06-22 07:07:38 51°19.684 2°37.21 -999 -999 -999 -999 -999
2007-06-22 07:07:43 51°19.694 2°37.186 -999 -999 -999 -999 -999
2007-06-22 07:07:48 51°19.704 2°37.161 -999 -999 -999 -999 -999
2007-06-22 07:07:53 51°19.714 2°37.137 -999 -999 -999 -999 -999
2007-06-22 07:07:57 51°19.722 2°37.117 -999 -999 -999 -999 -999
2007-06-22 07:08:02 51°19.731 2°37.093 -999 -999 -999 -999 -999
2007-06-22 07:08:08 51°19.743 2°37.064 -999 -999 -999 -999 -999
2007-06-22 07:08:13 51°19.753 2°37.04 -999 -999 -999 -999 -999
2007-06-22 07:08:18 51°19.763 2°37.015 -999 -999 -999 -999 -999
2007-06-22 07:08:22 51°19.771 2°36.996 -999 -999 -999 -999 -999
2007-06-22 07:08:28 51°19.783 2°36.967 -999 -999 -999 -999 -999
2007-06-22 07:08:33 51°19.793 2°36.943 -999 -999 -999 -999 -999
2007-06-22 07:08:38 51°19.802 2°36.919 -999 -999 -999 -999 -999
2007-06-22 07:08:43 51°19.812 2°36.894 -999 -999 -999 -999 -999
2007-06-22 07:08:48 51°19.822 2°36.87 -999 -999 -999 -999 -999
2007-06-22 07:08:53 51°19.832 2°36.846 -999 -999 -999 -999 -999
2007-06-22 07:08:58 51°19.841 2°36.821 -999 -999 -999 -999 -999
2007-06-22 07:09:03 51°19.851 2°36.797 -999 -999 -999 -999 -999
2007-06-22 07:09:08 51°19.86 2°36.772 -999 -999 -999 -999 -999
2007-06-22 07:09:13 51°19.87 2°36.748 -999 -999 -999 -999 -999
2007-06-22 07:09:18 51°19.88 2°36.724 -999 -999 -999 -999 -999
2007-06-22 07:09:23 51°19.89 2°36.699 -999 -999 -999 -999 -999
2007-06-22 07:09:28 51°19.9 2°36.675 -999 -999 -999 -999 -999
2007-06-22 07:09:33 51°19.91 2°36.651 -999 -999 -999 -999 -999
2007-06-22 07:09:38 51°19.919 2°36.626 -999 -999 -999 -999 -999
2007-06-22 07:09:43 51°19.929 2°36.602 -999 -999 -999 -999 -999
2007-06-22 07:09:48 51°19.939 2°36.578 -999 -999 -999 -999 -999
2007-06-22 07:09:53 51°19.949 2°36.553 -999 -999 -999 -999 -999
2007-06-22 07:09:57 51°19.957 2°36.534 -999 -999 -999 -999 -999
2007-06-22 07:10:02 51°19.967 2°36.51 -999 -999 -999 -999 -999
2007-06-22 07:10:08 51°19.979 2°36.48 -999 -999 -999 -999 -999
2007-06-22 07:10:13 51°19.989 2°36.456 -999 -999 -999 -999 -999
2007-06-22 07:10:18 51°19.998 2°36.431 -999 -999 -999 -999 -999
2007-06-22 07:10:22 51°20.007 2°36.412 -999 -999 -999 -999 -999
2007-06-22 07:10:27 51°20.016 2°36.387 -999 -999 -999 -999 -999
2007-06-22 07:10:33 51°20.028 2°36.358 -999 -999 -999 -999 -999
2007-06-22 07:10:38 51°20.037 2°36.333 -999 -999 -999 -999 -999
2007-06-22 07:10:42 51°20.046 2°36.314 -999 -999 -999 -999 -999
2007-06-22 07:10:48 51°20.057 2°36.285 -999 -999 -999 -999 -999
2007-06-22 07:10:53 51°20.067 2°36.261 -999 -999 -999 -999 -999
2007-06-22 07:10:58 51°20.077 2°36.236 -999 -999 -999 -999 -999
2007-06-22 07:11:03 51°20.087 2°36.212 -999 -999 -999 -999 -999
2007-06-22 07:11:08 51°20.096 2°36.187 -999 -999 -999 -999 -999
2007-06-22 07:11:13 51°20.106 2°36.163 -999 -999 -999 -999 -999
2007-06-22 07:11:18 51°20.116 2°36.138 -999 -999 -999 -999 -999
2007-06-22 07:11:23 51°20.125 2°36.114 -999 -999 -999 -999 -999
2007-06-22 07:11:28 51°20.135 2°36.089 -999 -999 -999 -999 -999
2007-06-22 07:11:33 51°20.145 2°36.065 -999 -999 -999 -999 -999
2007-06-22 07:11:37 51°20.153 2°36.045 -999 -999 -999 -999 -999
2007-06-22 07:11:43 51°20.165 2°36.016 -999 -999 -999 -999 -999
2007-06-22 07:11:48 51°20.175 2°35.992 -999 -999 -999 -999 -999
2007-06-22 07:11:53 51°20.185 2°35.968 -999 -999 -999 -999 -999
2007-06-22 07:11:57 51°20.193 2°35.948 -999 -999 -999 -999 -999
2007-06-22 07:12:02 51°20.203 2°35.924 -999 -999 -999 -999 -999
2007-06-22 07:12:08 51°20.215 2°35.894 -999 -999 -999 -999 -999
2007-06-22 07:12:13 51°20.224 2°35.87 -999 -999 -999 -999 -999
2007-06-22 07:12:17 51°20.232 2°35.85 -999 -999 -999 -999 -999
2007-06-22 07:12:23 51°20.244 2°35.821 -999 -999 -999 -999 -999
2007-06-22 07:12:28 51°20.254 2°35.796 -999 -999 -999 -999 -999
2007-06-22 07:12:33 51°20.264 2°35.772 -999 -999 -999 -999 -999
2007-06-22 07:12:38 51°20.274 2°35.748 -999 -999 -999 -999 -999
2007-06-22 07:12:42 51°20.282 2°35.729 -999 -999 -999 -999 -999
2007-06-22 07:12:48 51°20.294 2°35.7 -999 -999 -999 -999 -999
2007-06-22 07:12:53 51°20.303 2°35.675 -999 -999 -999 -999 -999
2007-06-22 07:12:58 51°20.313 2°35.651 -999 -999 -999 -999 -999
2007-06-22 07:13:03 51°20.323 2°35.627 -999 -999 -999 -999 -999
2007-06-22 07:13:08 51°20.333 2°35.603 -999 -999 -999 -999 -999
2007-06-22 07:13:13 51°20.343 2°35.578 -999 -999 -999 -999 -999
2007-06-22 07:13:18 51°20.354 2°35.554 -999 -999 -999 -999 -999
2007-06-22 07:13:23 51°20.364 2°35.53 -999 -999 -999 -999 -999
2007-06-22 07:13:28 51°20.373 2°35.506 -999 -999 -999 -999 -999
2007-06-22 07:13:33 51°20.383 2°35.481 -999 -999 -999 -999 -999
2007-06-22 07:13:38 51°20.392 2°35.457 -999 -999 -999 -999 -999
2007-06-22 07:13:43 51°20.402 2°35.433 -999 -999 -999 -999 -999
2007-06-22 07:13:48 51°20.411 2°35.409 -999 -999 -999 -999 -999
2007-06-22 07:13:53 51°20.421 2°35.384 -999 -999 -999 -999 -999
2007-06-22 07:13:58 51°20.431 2°35.36 -999 -999 -999 -999 -999
2007-06-22 07:14:03 51°20.441 2°35.336 -999 -999 -999 -999 -999
2007-06-22 07:14:08 51°20.451 2°35.312 -999 -999 -999 -999 -999
2007-06-22 07:14:13 51°20.461 2°35.287 -999 -999 -999 -999 -999
2007-06-22 07:14:17 51°20.469 2°35.268 -999 -999 -999 -999 -999
2007-06-22 07:14:23 51°20.482 2°35.239 -999 -999 -999 -999 -999
2007-06-22 07:14:28 51°20.492 2°35.215 -999 -999 -999 -999 -999
2007-06-22 07:14:33 51°20.502 2°35.191 -999 -999 -999 -999 -999
2007-06-22 07:14:38 51°20.513 2°35.167 -999 -999 -999 -999 -999
2007-06-22 07:14:42 51°20.521 2°35.147 -999 -999 -999 -999 -999
2007-06-22 07:14:48 51°20.533 2°35.118 -999 -999 -999 -999 -999
2007-06-22 07:14:53 51°20.544 2°35.094 -999 -999 -999 -999 -999
2007-06-22 07:14:58 51°20.554 2°35.07 -999 -999 -999 -999 -999
2007-06-22 07:15:02 51°20.562 2°35.051 -999 -999 -999 -999 -999
2007-06-22 07:15:08 51°20.574 2°35.022 -999 -999 -999 -999 -999
2007-06-22 07:15:13 51°20.584 2°34.997 -999 -999 -999 -999 -999
2007-06-22 07:15:18 51°20.594 2°34.973 -999 -999 -999 -999 -999
2007-06-22 07:15:23 51°20.604 2°34.949 -999 -999 -999 -999 -999
2007-06-22 07:15:28 51°20.615 2°34.926 -999 -999 -999 -999 -999
2007-06-22 07:15:33 51°20.628 2°34.904 -999 -999 -999 -999 -999
2007-06-22 07:15:38 51°20.64 2°34.883 -999 -999 -999 -999 -999
2007-06-22 07:15:42 51°20.652 2°34.867 -999 -999 -999 -999 -999
2007-06-22 07:15:48 51°20.668 2°34.843 -999 -999 -999 -999 -999
2007-06-22 07:15:53 51°20.684 2°34.826 -999 -999 -999 -999 -999
2007-06-22 07:15:58 51°20.699 2°34.808 -999 -999 -999 -999 -999
2007-06-22 07:16:03 51°20.715 2°34.791 -999 -999 -999 -999 -999
2007-06-22 07:16:08 51°20.731 2°34.776 -999 -999 -999 -999 -999
2007-06-22 07:16:13 51°20.748 2°34.762 -999 -999 -999 -999 -999
2007-06-22 07:16:17 51°20.762 2°34.753 -999 -999 -999 -999 -999
2007-06-22 07:16:23 51°20.784 2°34.74 -999 -999 -999 -999 -999
2007-06-22 07:16:28 51°20.802 2°34.731 -999 -999 -999 -999 -999
2007-06-22 07:16:33 51°20.821 2°34.721 -999 -999 -999 -999 -999
2007-06-22 07:16:37 51°20.836 2°34.715 -999 -999 -999 -999 -999
2007-06-22 07:16:42 51°20.855 2°34.707 -999 -999 -999 -999 -999
2007-06-22 07:16:48 51°20.878 2°34.698 -999 -999 -999 -999 -999
2007-06-22 07:16:53 51°20.897 2°34.691 -999 -999 -999 -999 -999
2007-06-22 07:16:58 51°20.916 2°34.683 -999 -999 -999 -999 -999
2007-06-22 07:17:02 51°20.931 2°34.677 -999 -999 -999 -999 -999
2007-06-22 07:17:08 51°20.954 2°34.668 -999 -999 -999 -999 -999
2007-06-22 07:17:13 51°20.973 2°34.659 -999 -999 -999 -999 -999
2007-06-22 07:17:18 51°20.991 2°34.651 -999 -999 -999 -999 -999
2007-06-22 07:17:23 51°21.01 2°34.643 -999 -999 -999 -999 -999
2007-06-22 07:17:28 51°21.029 2°34.635 -999 -999 -999 -999 -999
2007-06-22 07:17:33 51°21.048 2°34.627 -999 -999 -999 -999 -999
2007-06-22 07:17:38 51°21.066 2°34.618 -999 -999 -999 -999 -999
2007-06-22 07:17:42 51°21.081 2°34.611 -999 -999 -999 -999 -999
2007-06-22 07:17:48 51°21.104 2°34.601 -999 -999 -999 -999 -999
2007-06-22 07:17:53 51°21.123 2°34.593 -999 -999 -999 -999 -999
2007-06-22 07:17:58 51°21.142 2°34.585 -999 -999 -999 -999 -999
2007-06-22 07:18:03 51°21.161 2°34.577 -999 -999 -999 -999 -999
2007-06-22 07:18:08 51°21.18 2°34.569 -999 -999 -999 -999 -999
2007-06-22 07:18:13 51°21.198 2°34.56 -999 -999 -999 -999 -999
2007-06-22 07:18:18 51°21.217 2°34.551 -999 -999 -999 -999 -999
2007-06-22 07:18:23 51°21.236 2°34.543 -999 -999 -999 -999 -999
2007-06-22 07:18:28 51°21.255 2°34.535 -999 -999 -999 -999 -999
2007-06-22 07:18:33 51°21.274 2°34.526 -999 -999 -999 -999 -999
2007-06-22 07:18:38 51°21.292 2°34.518 -999 -999 -999 -999 -999
2007-06-22 07:18:43 51°21.311 2°34.509 -999 -999 -999 -999 -999
2007-06-22 07:18:48 51°21.33 2°34.501 -999 -999 -999 -999 -999
2007-06-22 07:18:53 51°21.348 2°34.492 -999 -999 -999 -999 -999
2007-06-22 07:18:58 51°21.367 2°34.483 -999 -999 -999 -999 -999
2007-06-22 07:19:03 51°21.385 2°34.473 -999 -999 -999 -999 -999
2007-06-22 07:19:08 51°21.403 2°34.463 -999 -999 -999 -999 -999
2007-06-22 07:19:13 51°21.421 2°34.454 -999 -999 -999 -999 -999
2007-06-22 07:19:18 51°21.439 2°34.444 -999 -999 -999 -999 -999
2007-06-22 07:19:22 51°21.454 2°34.437 -999 -999 -999 -999 -999
2007-06-22 07:19:28 51°21.476 2°34.426 -999 -999 -999 -999 -999
2007-06-22 07:19:33 51°21.494 2°34.416 -999 -999 -999 -999 -999
2007-06-22 07:19:38 51°21.513 2°34.408 -999 -999 -999 -999 -999
2007-06-22 07:19:42 51°21.527 2°34.4 -999 -999 -999 -999 -999
2007-06-22 07:19:48 51°21.549 2°34.389 -999 -999 -999 -999 -999
2007-06-22 07:19:53 51°21.568 2°34.38 -999 -999 -999 -999 -999
2007-06-22 07:19:58 51°21.586 2°34.37 -999 -999 -999 -999 -999
2007-06-22 07:20:02 51°21.601 2°34.362 -999 -999 -999 -999 -999
2007-06-22 07:20:08 51°21.623 2°34.352 -999 -999 -999 -999 -999
2007-06-22 07:20:13 51°21.641 2°34.343 -999 -999 -999 -999 -999
2007-06-22 07:20:18 51°21.66 2°34.333 -999 -999 -999 -999 -999
2007-06-22 07:20:23 51°21.678 2°34.324 -999 -999 -999 -999 -999
2007-06-22 07:20:28 51°21.696 2°34.315 -999 -999 -999 -999 -999
2007-06-22 07:20:33 51°21.715 2°34.305 -999 -999 -999 -999 -999
2007-06-22 07:20:38 51°21.733 2°34.296 -999 -999 -999 -999 -999
2007-06-22 07:20:43 51°21.752 2°34.287 -999 -999 -999 -999 -999
2007-06-22 07:20:48 51°21.77 2°34.277 -999 -999 -999 -999 -999
2007-06-22 07:20:53 51°21.789 2°34.267 -999 -999 -999 -999 -999